User: anonymous   Login
Location: Young's Pond
(41.2695°N, 72.7766°W)
Time: 03:30:48
(UTC-05:00)
Language:

Spot 4 - Orbit

View from above orbital plane
View from above orbital plane
View from above satellite
View from above satellite

Ground track
Ground track

The orbit data is extracted from the following two-line orbital elements,

1 25260U 98017A   14354.53452679  .00000794  00000-0  20282-3 0  5272
2 25260 098.4407 059.8657 0013192 180.9959 179.1212 14.53132150869726
Epoch (UTC): 20 December 2014 12:49:43
Eccentricity: 0.0013192
inclination: 98.4407°
perigee height: 706 km
apogee height: 725 km
right ascension of ascending node: 59.8657°
argument of perigee: 180.9959°
revolutions per day: 14.53132150
mean anomaly at epoch: 179.1212°
orbit number at epoch: 86972

The dashed part of the orbit path shows where the satellite is in the earth's shadow,  

DLR